#timestamp,LO_Frequency,Hit,StdDev 
1513234815.3,286046996.2,N
1513234835.1,286046999.4,N
1513234855.9,286047000.3,N
1513234875.7,286046999.2,N
1513234895.6,286047001.1,N
1513234915.4,286046998.7,N
1513234935.2,286046998.7,N
1513234955.1,286046997.1,N
1513234956.0,286046997.1,N
1513234975.8,286046999.0,N
1513234995.7,286047001.2,N
1513235015.5,286047000.0,N
1513235035.3,286046998.2,N
1513235055.2,286046998.9,N
1513235075.0,286046996.5,N
1513235075.9,286046996.5,N
1513235095.7,286046998.0,N
1513235115.6,286046997.4,N
1513235135.4,286046999.2,N
1513235155.3,286046999.3,N
1513235175.1,286046997.3,N
1513235195.8,286046998.7,N
1513235215.7,286046996.7,N
1513235235.5,286046995.8,N
1513235255.4,286046993.4,Y
1513235275.2,286046997.0,P
1513235295.0,286046998.4,P
1513235295.9,286046998.4,N
1513235315.8,286046998.7,N
1513235335.6,286046997.1,Y
1513235355.5,286047001.2,P
1513235375.3,286047001.3,N
1513235395.1,286047002.1,N
1513235415.9,286047000.4,N
1513235435.7,286047000.2,N
1513235455.6,286047001.4,N
1513235475.4,286047003.6,N
1513235495.2,286047003.1,N
1513235515.1,286047005.0,Y
1513235516.0,286047005.0,P
1513235535.8,286047003.9,N
1513235555.6,286047004.1,N
1513235575.5,286047002.5,N
1513235595.3,286047004.1,Y
1513235615.2,286046997.7,P
1513235635.0,286046996.1,N
1513235635.9,286046996.1,N
1513235655.7,286046995.6,N
1513235675.6,286046994.2,N
1513235695.4,286046995.4,N
1513235715.3,286046999.3,N
1513235735.1,286046999.3,N
1513235755.8,286046999.3,N
1513235775.7,286047001.1,N
1513235795.5,286046999.5,N
1513235815.4,286046996.2,N
1513235835.2,286046995.7,N
1513235855.0,286046997.5,N
1513235855.9,286046997.5,N
1513235875.8,286046999.4,N
1513235895.6,286046998.1,N
1513235915.4,286046996.7,N
1513235935.3,286046999.6,N
1513235955.1,286046996.6,N
1513235975.9,286047001.1,N
1513235995.7,286047000.0,N
1513236015.5,286047002.3,N
1513236035.4,286047000.5,N
1513236055.2,286046996.8,N
1513236075.1,286046997.4,N
1513236076.0,286046997.4,N
1513236095.8,286046998.0,N
1513236115.6,286046993.9,N
1513236135.5,286046994.7,N
1513236155.3,286046998.0,N
1513236175.2,286046995.7,N
1513236195.9,286046997.8,N
1513236215.7,286046997.4,N
1513236235.6,286046999.4,N
1513236255.4,286046999.4,N
1513236275.2,286046998.9,N
1513236295.1,286046998.2,N
1513236296.0,286046998.2,N
1513236315.8,286046999.4,N
1513236335.7,286046997.9,N
1513236355.5,286046994.9,N
1513236375.3,286046994.9,N
1513236395.2,286046995.2,N
1513236415.0,286046997.2,N
1513236415.9,286046997.2,N
1513236435.8,286046999.3,N
1513236455.6,286046998.1,N
1513236475.4,286046998.8,N
1513236495.3,286046998.3,N
1513236515.1,286047001.1,N
1513236535.9,286046997.0,N
1513236555.7,286046998.2,N
1513236575.5,286046994.9,Y
1513236595.4,286046998.3,P
1513236615.2,286046998.9,P
1513236635.0,286046999.2,N
1513236636.0,286046999.2,N
1513236655.8,286046998.8,N
1513236675.6,286047002.7,Y
1513236695.5,286047004.3,P
1513236715.3,286047005.2,N
1513236735.1,286047003.2,N
1513236755.9,286047004.4,N
1513236775.7,286047000.6,N
1513236795.6,286047001.1,N
1513236815.4,286047002.7,N
1513236835.2,286046999.8,N
1513236855.1,286047000.0,N
1513236856.0,286047000.0,N
1513236875.8,286047000.3,N
1513236895.7,286047001.9,N
1513236915.5,286047002.6,N
1513236935.3,286047000.4,N
1513236955.2,286047003.5,N
1513236975.0,286047001.8,N
1513236975.9,286047001.8,N
1513236995.8,286047003.6,N
1513237015.6,286047002.9,N
1513237035.4,286047001.9,N
1513237055.3,286047002.8,N
1513237075.1,286047001.9,N
1513237095.8,286047001.7,N
1513237115.7,286047001.6,N
1513237135.5,286047002.1,N
1513237155.4,286047004.0,N
1513237175.2,286047001.9,N
1513237195.0,286047002.8,N
1513237195.9,286047002.8,N
1513237215.8,286047001.7,N
1513237235.6,286047005.7,Y
1513237255.5,286047001.9,P
1513237275.3,286047003.2,P
1513237295.1,286047004.0,P
1513237315.9,286047000.4,N
1513237335.7,286047000.4,N
1513237355.5,286046999.3,N
1513237375.4,286046998.6,N
1513237395.2,286047000.6,N
1513237415.1,286047002.5,N
1513237416.0,286047002.5,N
1513237435.8,286047002.8,N
1513237455.6,286047000.3,N
1513237475.5,286047000.0,N
1513237495.3,286047000.1,N
1513237515.2,286046998.9,N
1513237535.9,286047001.0,N
1513237555.7,286047000.8,N
1513237575.6,286047000.9,N
1513237595.4,286047002.1,N
1513237615.3,286047001.0,N
1513237635.1,286047002.5,N
1513237636.0,286047002.5,N
1513237655.8,286047001.3,N
1513237675.7,286047002.0,N
1513237695.5,286047000.0,N
1513237715.3,286046998.2,N
1513237735.2,286046997.9,N
1513237755.0,286046999.4,N
1513237755.9,286046999.4,N
1513237775.8,286047000.6,N
1513237795.6,286047001.2,N
1513237815.4,286046998.5,N
1513237835.3,286046996.5,N
1513237855.1,286046995.6,N
1513237875.9,286046997.0,N
1513237895.7,286046998.1,N
1513237915.5,286047000.2,N
1513237935.4,286047000.4,N
1513237955.2,286046999.9,N
1513237975.1,286046998.5,N
1513237976.0,286046998.5,N
1513237995.8,286047000.5,N
1513238015.6,286046999.8,N
1513238035.5,286046998.2,N
1513238055.3,286047000.8,N
1513238075.1,286046998.1,N
1513238095.9,286047001.0,N
1513238115.7,286046999.0,N
1513238135.6,286046998.7,N
1513238155.4,286046995.0,N
1513238175.2,286046997.9,N
1513238195.1,286046998.0,N
1513238196.0,286046998.0,N
1513238215.8,286046997.1,N
1513238235.7,286046999.1,N
1513238255.5,286046999.4,N
1513238275.3,286046998.1,N
1513238295.2,286047000.5,N
1513238315.0,286047000.9,N
1513238315.9,286047000.9,N
1513238335.8,286047002.1,N
1513238355.6,286047002.7,N
1513238375.4,286047002.4,N
1513238395.3,286047000.8,N
